Weather in Rozhaje

Montenegro     42°50′34″N   20°10′02″E
temp.,
°C
wind,
m/s
gust,
m/s
humid.,
%
clouds,
%
prec.,
mm/h
press.,
hPa
HPBL,
m
25 february, thu
thu2501:00+2wnw11730 0.0 103522
04:00+2nnw11700 0.0 103422
07:00+3wnw11690 0.0 103522
10:00+9ese11670 0.0 1033257
13:00+10ese226228 0.0 1032544
16:00+9se117283 0.0 1031145
19:00+4sw116949 0.0 103122
22:00+4sw11660 0.0 103222
26 february, fri
fri2601:00+3sw11670 0.0 103122
04:00+3w11610 0.0 103022
07:00+3w11600 0.0 102922
10:00+10ese11590 0.0 1028210
13:00+12ene11590 0.0 1026496
16:00+10e00710 0.0 1025145
19:00+5wnw22750 0.0 102522
22:00+4wnw22740 0.0 102524
27 february, sat
sat2701:00+3nw23770 0.0 102529
04:00+3nw33770 0.0 102535
07:00+2nw33820 0.0 102562
10:00+6nnw45773 0.0 1025770
13:00+6nnw467850 0.1 1024872
16:00+5nnw3781100 0.3 1024818
19:00+1nnw348771 0.3 1027139
22:00−2nw34871 0.0 1028144
28 february, sun
sun2801:00−2nw35868 0.0 1029425
04:00−2nnw358094 0.1 1028530
07:00−2nnw357692 0.1 1029533
10:00+1nnw336269 0.0 1029796
13:00+4n235034 0.0 10291107
16:00+2n22570 0.0 1028829
19:00−3nnw22830 0.0 103137
22:00−3nw11880 0.0 103231
1 march, mon
mon101:00−4nnw12840 0.0 103238
04:00−4nnw12820 0.0 103247
07:00−3nnw11800 0.0 103275
10:00+2ene22460 0.0 1032572
13:00+4e22440 0.0 1031873
16:00+3e12530 0.0 1030707
19:00−3s118117 0.0 103330
22:00−3nnw118489 0.0 103421